Regional Weather Roundup
Issued by NWS

Home | Current Version | Previous Version | Graphics & Text | Print | Product List | Glossary On
Versions: 1 2 3 4 5 6 7 8 9 10 11 12 13 14 15 16 17 18 19 20 21 22 23 24 25 26 27 28 29 30 31 32 33 34 35 36 37 38 39 40 41 42 43 44 45 46 47 48 49 50
000
ASUS45 KCYS 211910
RWRWY

WYOMING REGIONAL WEATHER ROUNDUP
NATIONAL WEATHER SERVICE CHEYENNE WY
100 PM MDT THU AUG 21 2014

NOTE:  "FAIR" INDICATES FEW OR NO CLOUDS BELOW 12,000 FEET
WITH NO SIGNIFICANT WEATHER AND/OR OBSTRUCTIONS TO VISIBILITY.

WYZ001-212000-
YELLOWSTONE NATIONAL PARK

CITY           SKY/WX    TMP DP  RH WIND       PRES   REMARKS
LK YELLOWSTONE   N/A     52  46  80 VRB5      30.23F
W YELLOWSTONE  NOT AVBL

$$
WYZ002>013-054>058-071-098>099-212000-
NORTHERN WYOMING

CITY           SKY/WX    TMP DP  RH WIND       PRES   REMARKS
JACKSON        CLOUDY    57  52  82 S8        30.19S
CODY           CLOUDY    63  52  67 CALM      30.09F
GREYBULL       LGT RAIN  71  54  54 NW15      30.02S
WORLAND        PTSUNNY   75  49  39 N7        30.01F
SHERIDAN       PTSUNNY   76  50  40 NE6       30.02F
BUFFALO        PTSUNNY   68  49  50 N8        30.07F
GILLETTE       PTSUNNY   74  51  44 E5        30.02F
HULETT         FAIR      77  52  41 MISG      30.02
NEWCASTLE      FAIR      81  43  26 SW6       29.99

$$
WYZ014>020-022>026-101>103-212000-
CENTRAL WYOMING

CITY           SKY/WX    TMP DP  RH WIND       PRES   REMARKS
BIG PINEY      PTSUNNY   62  43  49 VRB3      30.22S
PINEDALE       CLOUDY    55  46  71 N8        30.23S
DUBOIS         CLOUDY    61  45  55 W15G22    30.17F
LANDER         MOSUNNY   75  43  31 SW17G24   30.04F
RIVERTON       PTSUNNY   74  41  30 MISG      30.04F
CASPER         PTSUNNY   79  41  25 SW18G32   30.07F
DOUGLAS        SUNNY     82  41  23 W21G26    30.05F

$$
WYZ021-027>030-104>119-212000-
SOUTHERN WYOMING

CITY           SKY/WX    TMP DP  RH WIND       PRES   REMARKS
EVANSTON       PTSUNNY   64  44  48 W23       30.25R
KEMMERER       CLOUDY    61  45  55 SW16G25   30.24F
FORT BRIDGER   MOCLDY    67  50  56 W17G24    30.26S
ROCK SPRINGS   PTSUNNY   70  41  34 W22G29    30.20F
DIXON          FAIR      72  46  40 W12       30.23S
RAWLINS        PTSUNNY   72  39  30 SW18G29   30.19F
SARATOGA       MOCLDY    70  45  40 MISG      30.23S
LARAMIE        PTSUNNY   70  40  33 W17G24    30.21F
CHEYENNE       MOSUNNY   80  40  23 W18G26    30.15S
TORRINGTON     MOSUNNY   84  45  25 W5        30.01F
PINE BLUFFS    FAIR      79  41  25 NW7       30.09F

$$


USA.gov is the U.S. government's official web portal to all federal, state and local government web resources and services.